Location: Unspecified
(50.7693°N, 0.0000°E)
Time: 11:16:47
(UTC+00:00)

SR - Pass Details

Date: 29 June 2019
Orbit: 581 x 875 km, 66.7° (Epoch: 16 July)

Event Time Altitude Azimuth Distance (km) Brightness Sun altitude
Rises 09:20:12 0° 324° (NW) 2,979 ? 48.2°
Reaches altitude 10° 09:22:31 10° 331° (NNW) 2,108 ? 48.5°
Maximum altitude 09:27:06 44° 44° (NE) 987 ? 49.2°
Drops below altitude 10° 09:32:04 10° 116° (ESE) 2,284 ? 49.9°
Sets 09:34:40 0° 123° (ESE) 3,257 ? 50.2°
